| time (UTC) | temp C | wind direction | speed KPH | gust KPH | rain 1hr cm | rain 24hr cm | rain mn cm | humidity % | barometer mb |
| 20260503033030 | 27 | 223 | 3.2 | 9.7 | 0.00 | 0.00 | 0.00 | 79 | 1016.0 |
| 20260503031528 | 27 | 263 | 6.4 | 12.9 | 0.00 | 0.00 | 0.00 | 78 | 1016.0 |
| 20260503030030 | 27 | 278 | 4.8 | 12.9 | 0.00 | 0.00 | 0.00 | 78 | 1015.9 |
| 20260503024528 | 27 | 273 | 3.2 | 14.5 | 0.00 | 0.00 | 0.00 | 76 | 1015.7 |
| 20260503023030 | 27 | 252 | 0.0 | 4.8 | 0.00 | 0.00 | 0.00 | 74 | 1016.0 |
| 20260503021530 | 27 | 309 | 0.0 | 6.4 | 0.00 | 0.00 | 0.00 | 73 | 1015.8 |
| 20260503020028 | 28 | 248 | 4.8 | 11.3 | 0.00 | 0.00 | 0.00 | 71 | 1015.7 |
| 20260503014539 | 28 | 307 | 0.0 | 12.9 | 0.00 | 0.00 | 0.00 | 70 | 1015.8 |
| 20260503013032 | 28 | 266 | 1.6 | 9.7 | 0.00 | 0.00 | 0.00 | 68 | 1015.7 |
| 20260503011537 | 28 | 302 | 4.8 | 12.9 | 0.00 | 0.00 | 0.00 | 66 | 1015.6 |
| 20260503010029 | 28 | 264 | 0.0 | 11.3 | 0.00 | 0.00 | 0.00 | 64 | 1015.2 |
| 20260503004530 | 29 | 285 | 1.6 | 14.5 | 0.00 | 0.00 | 0.00 | 62 | 1015.0 |
| 20260503003028 | 29 | 245 | 3.2 | 19.3 | 0.00 | 0.00 | 0.00 | 60 | 1014.9 |
| 20260503001537 | 30 | 295 | 4.8 | 20.9 | 0.00 | 0.00 | 0.00 | 58 | 1014.6 |
| 20260503000028 | 30 | 220 | 4.8 | 19.3 | 0.00 | 0.00 | 0.00 | 59 | 1014.3 |
| 20260502234528 | 30 | 314 | 4.8 | 20.9 | 0.00 | 0.00 | 0.00 | 57 | 1013.9 |
| 20260502233034 | 30 | 283 | 6.4 | 17.7 | 0.00 | 0.00 | 0.00 | 55 | 1013.7 |
| 20260502231538 | 31 | 141 | 8.0 | 17.7 | 0.00 | 0.00 | 0.00 | 54 | 1013.5 |
| 20260502230028 | 32 | 243 | 4.8 | 17.7 | 0.00 | 0.00 | 0.00 | 53 | 1013.2 |
| 20260502224531 | 32 | 299 | 8.0 | 14.5 | 0.00 | 0.00 | 0.00 | 53 | 1013.0 |
| 20260502223028 | 32 | 208 | 8.0 | 19.3 | 0.00 | 0.00 | 0.00 | 53 | 1013.0 |
| 20260502221527 | 32 | 290 | 4.8 | 20.9 | 0.00 | 0.00 | 0.00 | 53 | 1013.1 |
| 20260502220037 | 32 | 186 | 9.7 | 20.9 | 0.00 | 0.00 | 0.00 | 52 | 1012.9 |
| 20260502214530 | 33 | 187 | 8.0 | 17.7 | 0.00 | 0.00 | 0.00 | 57 | 1012.8 |
| 20260502213027 | 31 | 147 | 12.9 | 30.6 | 0.00 | 0.00 | 0.00 | 67 | 1012.4 |
| 20260502211540 | 32 | 239 | 3.2 | 20.9 | 0.00 | 0.00 | 0.00 | 59 | 1012.5 |
| 20260502210028 | 33 | 250 | 11.3 | 20.9 | 0.00 | 0.00 | 0.00 | 43 | 1012.5 |
| 20260502204528 | 34 | 150 | 8.0 | 19.3 | 0.00 | 0.00 | 0.00 | 46 | 1012.4 |
| 20260502203030 | 34 | 214 | 11.3 | 27.4 | 0.00 | 0.00 | 0.00 | 43 | 1012.4 |
| 20260502201526 | 34 | 288 | 6.4 | 20.9 | 0.00 | 0.00 | 0.00 | 43 | 1012.7 |
| 20260502200029 | 34 | 262 | 4.8 | 22.5 | 0.00 | 0.00 | 0.00 | 46 | 1012.9 |
| 20260502194528 | 33 | 174 | 9.7 | 29.0 | 0.00 | 0.00 | 0.00 | 46 | 1013.1 |
| 20260502193028 | 33 | 177 | 9.7 | 22.5 | 0.00 | 0.00 | 0.00 | 50 | 1013.3 |
| 20260502191533 | 33 | 242 | 9.7 | 32.2 | 0.00 | 0.00 | 0.00 | 52 | 1013.3 |
| 20260502190028 | 33 | 154 | 4.8 | 20.9 | 0.00 | 0.00 | 0.00 | 54 | 1013.5 |
| 20260502184533 | 32 | 148 | 9.7 | 22.5 | 0.00 | 0.00 | 0.00 | 58 | 1013.5 |
| 20260502183028 | 31 | 254 | 4.8 | 27.4 | 0.00 | 0.00 | 0.00 | 65 | 1013.7 |
| 20260502181531 | 31 | 122 | 11.3 | 24.1 | 0.00 | 0.00 | 0.00 | 69 | 1013.7 |
| 20260502163034 | 30 | 141 | 16.1 | 32.2 | 0.00 | 0.00 | 0.00 | 73 | 1014.4 |
| 20260502161529 | 30 | 129 | 12.9 | 29.0 | 0.00 | 0.00 | 0.00 | 73 | 1014.5 |
| 20260502151527 | 30 | 183 | 12.9 | 25.7 | 0.00 | 0.00 | 0.00 | 76 | 1014.6 |
| 20260502123030 | 27 | 193 | 6.4 | 19.3 | 0.00 | 0.00 | 0.00 | 84 | 1014.2 |
| 20260502121541 | 27 | 198 | 8.0 | 16.1 | 0.00 | 0.00 | 0.00 | 85 | 1014.0 |
| 20260502114528 | 26 | 215 | 3.2 | 11.3 | 0.00 | 0.00 | 0.00 | 86 | 1014.0 |
| 20260502113030 | 26 | 139 | 3.2 | 11.3 | 0.00 | 0.00 | 0.00 | 86 | 1013.9 |
| 20260502111527 | 26 | 143 | 6.4 | 17.7 | 0.00 | 0.00 | 0.00 | 86 | 1014.0 |
| 20260502110030 | 26 | 182 | 4.8 | 14.5 | 0.00 | 0.00 | 0.00 | 86 | 1013.9 |
| 20260502104541 | 26 | 160 | 8.0 | 17.7 | 0.00 | 0.00 | 0.00 | 85 | 1013.8 |
| 20260502103029 | 26 | 211 | 1.6 | 11.3 | 0.00 | 0.00 | 0.00 | 86 | 1013.9 |
| 20260502101528 | 26 | 150 | 1.6 | 12.9 | 0.00 | 0.00 | 0.00 | 86 | 1013.9 |
| 20260502091528 | 26 | 176 | 1.6 | 16.1 | 0.00 | 0.00 | 0.00 | 87 | 1013.7 |
| 20260502070028 | 26 | 193 | 1.6 | 11.3 | 0.00 | 0.00 | 0.00 | 86 | 1013.9 |
| 20260502064529 | 26 | 146 | 1.6 | 11.3 | 0.00 | 0.00 | 0.00 | 86 | 1013.8 |
| 20260502063028 | 26 | 157 | 4.8 | 11.3 | 0.00 | 0.00 | 0.00 | 85 | 1014.1 |
| 20260502061527 | 26 | 193 | 3.2 | 14.5 | 0.00 | 0.00 | 0.00 | 85 | 1014.1 |
| 20260502060028 | 26 | 191 | 4.8 | 11.3 | 0.00 | 0.00 | 0.00 | 85 | 1014.0 |
| 20260502054530 | 26 | 151 | 4.8 | 12.9 | 0.00 | 0.00 | 0.00 | 84 | 1014.1 |
| 20260502053027 | 26 | 141 | 1.6 | 12.9 | 0.00 | 0.00 | 0.00 | 85 | 1014.2 |
| 20260502051547 | 26 | 148 | 3.2 | 12.9 | 0.00 | 0.00 | 0.00 | 85 | 1014.3 |
| 20260502050028 | 26 | 124 | 1.6 | 8.0 | 0.00 | 0.00 | 0.00 | 85 | 1014.5 |
| 20260502044528 | 26 | 181 | 3.2 | 9.7 | 0.00 | 0.00 | 0.00 | 85 | 1014.7 |
| 20260502043029 | 26 | 116 | 3.2 | 8.0 | 0.00 | 0.00 | 0.00 | 85 | 1014.7 |
| 20260502041529 | 25 | 0 | 0.0 | 6.4 | 0.00 | 0.00 | 0.00 | 86 | 1014.9 |
| 20260502040028 | 25 | 0 | 0.0 | 3.2 | 0.00 | 0.00 | 0.00 | 85 | 1014.8 |
| 20260502034539 | 25 | 218 | 0.0 | 3.2 | 0.00 | 0.00 | 0.00 | 85 | 1015.0 |